Location: Gollag?dem
(16.8053°N, 80.8024°E)
Time: 09:51:15
(UTC+00:00)

deb Kosmos-1763 - Pass Details

Date: 13 August 2020
Orbit: 463 x 478 km, 74.0° (Epoch: 19 September)

Event Time Altitude Azimuth Distance (km) Brightness Sun altitude
Rises 13:57:07 0° 188° (S) 2,486 7.5 -13.2°
Reaches altitude 10° 13:59:13 10° 185° (S) 1,615 6.6 -13.7°
Maximum altitude 14:02:45 65° 103° (ESE) 518 3.9 -14.5°
Drops below altitude 10° 14:06:18 10° 21° (NNE) 1,627 6.7 -15.3°
Sets 14:08:25 0° 18° (NNE) 2,508 7.7 -15.7°
